Back to catalog

FENGYUN 1C DEB

AliveSSO
NORAD 38727·DEBRIS·🇨🇳 China

Launched May 10, 1999 from Taiyuan Satellite Launch Center

Loading…

Next Passes (next 24 hours)

TLE

AgingSource: Space-Track

Epoch: Sep 9, 2026, 18:47 UTC

1 38727U 99025ETU 26252.78295520  .00001695  00000-0  10219-2 0  9993
2 38727  98.6157 241.3984 0101874 176.7048 307.4108 14.05388484756387

Track FENGYUN 1C DEB in real time with AllMySat

Download on the App Store